ORBCOMM FM32

Last updated on Sat Aug 15 2026 00:03:10 GMT+0000 (Coordinated Universal Time)

1 25982U 99065C 26226.12600097 .00000195 00000+0 11238-3 0 9990 2 25982 45.0146 258.9784 0006684 324.6145 35.4259 14.37200846395426
UTC large
Height (km)
Speed (km/s)
/
Latitude / Longitude
Inclination (degrees)
Orbital Period (minutes)
Azimuth
Elevation
Range (km)
Doppler Factor

Next 0 passes for location: London (51.5072 / 0.1276)

No passes found over London.
ORBCOMM FM32